Location: Prague
(50.0830°N, 14.4670°E)
Time: 04:04:26
(UTC+02:00)

FO-29 - Pass Details

Date: 05 April 2023
Orbit: 799 x 1322 km, 98.5° (Epoch: 29 May)

Event Time Altitude Azimuth Distance (km) Brightness Sun altitude
Rises 04:00:42 0° 25° (NNE) 4,236 14.0 -22.4°
Reaches altitude 10° 04:05:31 10° 51° (NE) 3,169 13.3 -21.8°
Maximum altitude 04:08:35 13° 77° (ENE) 2,875 12.8 -21.4°
Drops below altitude 10° 04:11:31 10° 102° (ESE) 3,014 12.5 -21.0°
Sets 04:15:49 0° 130° (SE) 3,843 12.8 -20.5°
